Location: Kunchanapalle
(16.4623°N, 80.6176°E)
Time: 13:40:38
(UTC+00:00)

Cosmos 1269 Rocket - Pass Details

Date: 13 August 2020
Orbit: 772 x 780 km, 74.1° (Epoch: 25 September)

Event Time Altitude Azimuth Distance (km) Brightness Sun altitude
Rises 23:34:44 0° 334° (NNW) 3,250 7.2 -11.5°
Reaches altitude 10° 23:37:15 10° 326° (NW) 2,323 6.3 -11.0°
Maximum altitude 23:42:05 37° 259° (W) 1,183 4.5 -9.9°
Drops below altitude 10° 23:46:55 10° 193° (SSW) 2,322 6.2 -8.8°
Sets 23:49:27 0° 185° (S) 3,249 7.0 -8.2°
